GW4239 Weather Reports


time (UTC)temp
F
wind
direction
speed
knots
gust
knots
rain 1hr
in
rain 24hr
in
rain mn
in
humidity
%
barometer
mb
20260504045917 41 0.0 0.0 0.00 0.00 0.00 77 1017.3
20260504044917 41 0.0 0.0 0.00 0.00 0.00 76 1017.3
20260504043917 42 0.0 0.0 0.00 0.00 0.00 75 1017.2
20260504042917 42 0.0 0.0 0.00 0.00 0.00 75 1017.2
20260504041917 42 0.0 0.0 0.00 0.00 0.00 75 1017.1
20260504040917 42 0.0 0.0 0.00 0.00 0.00 74 1017.1
20260504035917 42 0.0 0.0 0.00 0.00 0.00 73 1017.0
20260504034917 43 0.0 0.0 0.00 0.00 0.00 72 1017.0
20260504033937 43 0.0 0.0 0.00 0.00 0.00 70 1016.9
20260504032917 43 0.0 0.0 0.00 0.00 0.00 70 1016.8
20260504031937 43 0.0 0.0 0.00 0.00 0.00 70 1016.8
20260504030917 43 0.0 0.0 0.00 0.00 0.00 70 1016.9
20260504025917 43 0.0 0.0 0.00 0.00 0.00 71 1016.9
20260504024917 44 0.0 0.0 0.00 0.00 0.00 69 1016.9
20260504023917 44 0.0 0.0 0.00 0.00 0.00 68 1017.0
20260504022917 44 0.0 0.0 0.00 0.00 0.00 66 1016.9
20260504021917 45 0.0 0.0 0.00 0.00 0.00 65 1016.9
20260504020917 46 0.0 0.0 0.00 0.00 0.00 62 1016.8
20260504015917 46 0.0 0.0 0.00 0.00 0.00 62 1016.6
20260504014917 47 269 0.9 0.9 0.00 0.00 0.00 61 1016.7
20260504013917 47 269 0.0 1.7 0.00 0.00 0.00 58 1016.4
20260504012917 48 269 0.9 0.9 0.00 0.00 0.00 58 1016.0
20260504011917 48 269 0.9 0.9 0.00 0.00 0.00 56 1015.9
20260504010917 49 0.0 0.0 0.00 0.00 0.00 54 1016.0
20260504005917 50 0.0 0.0 0.00 0.00 0.00 52 1015.7
20260504004917 51 269 0.9 0.9 0.00 0.00 0.00 50 1015.6
20260504003917 52 0.0 0.0 0.00 0.00 0.00 49 1015.5
20260504002917 53 269 0.9 1.7 0.00 0.00 0.00 47 1015.4
20260504001917 54 0.0 0.0 0.00 0.00 0.00 45 1015.2
20260504000916 55 269 0.9 0.9 0.00 0.00 0.00 42 1015.2
20260503235917 57 269 0.9 1.7 0.00 0.00 0.00 39 1015.3
20260503234937 58 269 0.0 1.7 0.00 0.00 0.00 37 1015.0
20260503233917 59 0.0 0.0 0.00 0.00 0.00 34 1015.0
20260503232917 59 259 0.9 0.9 0.00 0.00 0.00 33 1015.1
20260503231919 60 278 0.9 2.6 0.00 0.00 0.00 30 1015.2
20260503230917 60 264 0.9 1.7 0.00 0.00 0.00 31 1015.2
20260503225917 60 321 0.9 2.6 0.00 0.00 0.00 29 1015.2
20260503224917 61 325 2.6 3.5 0.00 0.00 0.00 27 1015.2
20260503223917 61 314 0.9 1.7 0.00 0.00 0.00 28 1015.2
20260503222917 61 277 0.9 1.7 0.00 0.00 0.00 26 1015.4
20260503221937 61 321 3.5 4.3 0.00 0.00 0.00 25 1015.3
20260503220917 62 261 2.6 4.3 0.00 0.00 0.00 25 1015.5
20260503215937 62 317 2.6 7.8 0.00 0.00 0.00 24 1015.5
20260503214917 62 243 4.3 7.8 0.00 0.00 0.00 25 1015.6
20260503213916 62 292 1.7 2.6 0.00 0.00 0.00 27 1015.7
20260503212917 62 340 3.5 5.2 0.00 0.00 0.00 27 1015.8
20260503211917 62 261 1.7 2.6 0.00 0.00 0.00 27 1015.8
20260503210917 62 244 5.2 8.7 0.00 0.00 0.00 29 1015.8
20260503205917 62 330 3.5 8.7 0.00 0.00 0.00 25 1015.8
20260503204917 63 243 1.7 4.3 0.00 0.00 0.00 28 1016.1
20260503203917 63 244 4.3 10.4 0.00 0.00 0.00 29 1016.1
20260503202917 63 254 1.7 7.0 0.00 0.00 0.00 31 1016.3
20260503201917 62 327 0.9 7.0 0.00 0.00 0.00 28 1016.5
20260503200917 62 358 4.3 6.1 0.00 0.00 0.00 30 1016.7
20260503195917 62 323 2.6 4.3 0.00 0.00 0.00 29 1016.8
20260503194937 62 251 4.3 9.6 0.00 0.00 0.00 30 1016.9
20260503193917 62 298 0.9 7.0 0.00 0.00 0.00 31 1016.9
20260503192916 61 247 1.7 3.5 0.00 0.00 0.00 29 1017.2
20260503191937 61 223 3.5 6.1 0.00 0.00 0.00 32 1017.3
20260503190917 61 296 1.7 3.5 0.00 0.00 0.00 31 1017.6
20260503185937 60 244 3.5 7.0 0.00 0.00 0.00 32 1017.7
20260503184917 60 307 4.3 10.4 0.00 0.00 0.00 33 1017.8
20260503183917 60 279 2.6 5.2 0.00 0.00 0.00 31 1017.8
20260503182917 60 109 1.7 3.5 0.00 0.00 0.00 31 1018.0
20260503181917 60 99 1.7 3.5 0.00 0.00 0.00 34 1018.3
20260503180937 59 220 2.6 4.3 0.00 0.00 0.00 35 1018.5
20260503175938 58 211 4.3 6.1 0.00 0.00 0.00 36 1018.5
20260503174917 58 211 4.3 6.1 0.00 0.00 0.00 35 1018.6
20260503173917 57 221 3.5 7.8 0.00 0.00 0.00 35 1018.7
20260503172917 57 250 2.6 6.1 0.00 0.00 0.00 37 1018.6
20260503171916 56 275 5.2 7.0 0.00 0.00 0.00 37 1018.9
20260503170917 56 346 3.5 6.1 0.00 0.00 0.00 36 1019.1
20260503150937 50 92 2.6 7.0 0.00 0.00 0.00 41 1020.2
20260503130916 45 0 3.5 5.2 0.00 0.00 0.00 58 1020.3
20260503080937 36 0.0 0.0 0.00 0.00 0.00 83 1017.4
20260503072937 36 293 0.9 1.7 0.00 0.00 0.00 85 1017.0